Temp
56 55 57 61 68 69 71 71 72 72 73 74 75 75 76 76 76 77 77 78 78 78 79 79 79 78 78 78 78 77 77 76 76 75 75 76 78 78 78 77 79 84 78
57 53 56 60 67 68 69 70 70 70 71 72 73 74 75 75 75 75 76 76 77 77 78 78 78 77 77 77 77 76 76 75 74 74 74 76 76 78 78 77 77 80 78
55 52 52 60 65 66 67 68 68 69 69 70 71 72 73 73 73 73 74 74 75 75 76 76 76 76 76 76 76 76 75 74 73 73 75 85 84 78 78 77 77 78 78
53 51 51 61 63 65 65 66 67 67 67 67 68 69 70 71 71 71 71 72 73 73 74 74 74 74 75 75 75 75 75 74 73 73 85 84 84 76 78 78 78 78 77
51 51 50 59 62 63 64 64 65 65 65 65 66 66 67 68 69 69 69 69 70 71 72 72 72 72 72 73 73 73 73 72 72 80 84 82 84 80 78 78 79 77 77
50 50 50 56 59 61 62 62 62 63 63 63 63 64 65 65 66 66 67 67 68 68 69 70 70 70 70 71 71 71 71 71 72 83 83 82 82 77 78 78 77 77 76
49 47 47 52 55 58 59 59 59 60 61 60 60 61 62 63 63 64 64 64 65 66 67 67 67 68 68 68 69 69 69 68 81 82 82 82 79 76 79 78 78 77 77
49 47 45 46 49 53 56 56 57 57 58 58 57 57 58 59 60 60 61 62 63 64 64 65 65 65 66 66 67 67 67 67 79 81 81 82 72 77 78 78 78 78 77
49 48 47 47 47 48 51 52 53 53 54 54 54 53 54 54 56 57 58 59 60 61 61 62 62 63 63 64 64 64 66 66 77 79 80 75 72 77 78 77 76 77 78
47 48 49 50 50 53 52 48 49 49 50 50 51 51 51 53 53 53 54 55 56 58 59 60 60 60 61 62 62 63 65 68 75 74 75 70 71 76 77 77 76 76 76
47 46 46 47 48 50 50 49 49 48 48 49 50 50 53 55 54 53 51 52 53 54 56 57 58 59 61 63 62 63 66 72 74 74 71 66 70 74 76 76 75 76 75
43 44 45 45 45 47 49 50 51 50 50 50 51 51 53 53 52 52 50 50 51 52 54 56 57 59 61 65 66 66 69 70 72 72 73 64 68 72 73 74 74 74 75
41 42 41 43 45 45 46 48 49 49 49 49 48 49 50 52 53 53 52 52 52 52 55 57 58 59 60 61 63 65 66 68 69 71 69 62 66 69 71 72 73 73 74
41 40 41 42 43 43 45 46 46 46 47 46 46 47 49 50 51 51 51 51 50 52 52 55 56 57 58 59 60 62 64 65 67 68 67 61 64 66 68 70 71 72 73
40 39 40 41 42 42 43 44 44 44 44 44 44 44 46 47 48 49 50 50 48 50 50 52 54 55 57 57 59 59 61 63 64 66 66 62 62 63 65 66 68 69 70
40 40 39 40 41 42 43 43 43 43 44 44 43 42 43 45 46 46 47 48 48 48 49 51 51 53 55 56 57 58 58 61 64 64 65 65 61 60 62 63 65 65 66
42 40 39 39 40 41 41 42 43 42 43 43 43 42 42 43 44 46 46 46 46 47 48 50 50 53 53 54 55 56 57 60 61 60 61 62 61 60 60 59 60 62 63
41 40 39 39 38 40 40 41 42 41 41 42 42 42 41 40 41 44 45 43 45 46 46 47 47 49 50 51 52 54 56 58 59 58 58 58 58 58 58 57 57 59 60
40 39 37 37 37 38 40 40 40 40 41 41 41 40 39 40 40 42 42 42 45 45 44 45 46 46 46 48 49 53 54 54 56 56 55 55 54 54 56 55 55 57 56
39 38 37 37 36 37 40 41 42 41 40 41 39 38 38 39 39 41 42 41 43 43 43 44 45 47 44 45 48 51 52 53 53 53 52 54 52 52 54 53 56 55 55
38 37 37 36 35 38 40 41 42 40 40 39 38 36 36 37 38 38 40 41 42 41 40 41 44 44 43 44 49 50 52 51 51 51 51 51 49 51 52 52 53 53 55
37 37 36 35 33 35 38 39 41 41 38 38 38 36 35 35 36 36 37 38 39 40 40 39 40 43 43 42 41 47 44 51 50 48 49 48 47 49 49 51 51 52 53
37 36 35 32 31 32 29 35 36 37 39 39 37 37 34 34 35 35 35 36 37 38 38 38 38 37 40 41 40 39 42 39 39 47 47 47 45 47 48 48 50 51 52
36 34 33 31 29 28 29 31 32 37 37 36 35 36 35 33 33 34 34 35 35 37 36 36 37 37 37 37 41 40 38 36 33 36 45 46 45 45 46 47 48 50 51
35 32 30 29 28 26 25 28 29 31 31 33 34 32 34 34 32 32 32 33 33 34 35 35 35 35 36 35 35 36 37 39 39 33 33 38 42 44 45 46 47 49 49
31 30 29 27 26 25 25 22 24 23 26 30 29 33 32 33 31 29 29 30 31 31 32 33 34 33 33 34 36 35 34 34 33 32 31 33 35 40 42 46 47 47 48
MSLP
1029.01 1029.05 1028.29 1027.29 1025.74 1025.05 1024.34 1023.70 1023.26 1022.84 1022.43 1021.92 1021.46 1021.19 1020.98 1020.75 1020.51 1020.34 1020.19 1019.91 1019.60 1019.25 1018.93 1018.72 1018.49 1018.45 1018.39 1018.24 1018.03 1017.87 1017.88 1017.72 1017.55 1017.38 1017.22 1016.96 1016.81 1016.75 1016.68 1016.54 1016.21 1015.89 1016.29
1029.73 1029.65 1028.75 1027.59 1026.21 1025.54 1024.97 1024.45 1024.02 1023.61 1023.23 1022.83 1022.28 1021.81 1021.56 1021.48 1021.24 1020.97 1020.61 1020.32 1020.05 1019.69 1019.40 1019.21 1019.04 1018.86 1018.80 1018.65 1018.43 1018.26 1018.29 1018.16 1017.86 1017.74 1017.45 1017.07 1017.16 1017.12 1016.99 1016.82 1016.71 1016.56 1016.60
1030.12 1030.10 1029.35 1028.02 1026.87 1026.17 1025.57 1025.03 1024.59 1024.27 1023.96 1023.58 1023.23 1022.75 1022.37 1022.14 1021.88 1021.58 1021.26 1021.01 1020.68 1020.30 1020.07 1019.80 1019.48 1019.33 1019.23 1018.98 1018.85 1018.75 1018.62 1018.55 1018.31 1018.03 1017.55 1016.88 1016.80 1017.24 1017.16 1017.16 1017.02 1016.92 1016.88
1030.58 1030.49 1029.83 1028.30 1027.43 1026.73 1026.22 1025.69 1025.23 1024.79 1024.56 1024.36 1024.00 1023.57 1023.16 1022.84 1022.63 1022.44 1022.15 1021.72 1021.40 1020.99 1020.55 1020.25 1020.01 1019.83 1019.60 1019.35 1019.11 1018.93 1018.94 1018.71 1018.43 1018.05 1017.23 1017.25 1016.98 1017.49 1017.42 1017.36 1017.26 1017.20 1017.17
1030.90 1030.72 1030.24 1028.77 1027.93 1027.25 1026.76 1026.37 1025.92 1025.46 1025.12 1024.97 1024.68 1024.45 1024.11 1023.76 1023.37 1023.14 1022.92 1022.58 1022.12 1021.74 1021.32 1020.93 1020.62 1020.46 1020.12 1019.87 1019.81 1019.59 1019.26 1018.84 1018.46 1017.79 1017.70 1017.70 1017.29 1017.44 1017.54 1017.51 1017.54 1017.31 1017.34
1031.11 1031.03 1030.69 1029.42 1028.52 1027.85 1027.30 1027.05 1026.59 1026.20 1025.90 1025.75 1025.46 1025.11 1024.74 1024.44 1024.17 1023.89 1023.51 1023.22 1022.82 1022.45 1021.97 1021.75 1021.47 1021.24 1020.71 1020.50 1020.28 1019.95 1019.47 1019.11 1018.39 1017.95 1017.95 1017.82 1017.74 1017.90 1017.54 1017.66 1017.75 1017.60 1017.48
1031.24 1031.42 1031.28 1030.27 1029.43 1028.70 1028.09 1027.82 1027.47 1027.04 1026.72 1026.49 1026.25 1025.90 1025.60 1025.20 1024.89 1024.52 1024.28 1023.93 1023.54 1023.11 1022.65 1022.38 1022.12 1021.71 1021.38 1021.22 1020.86 1020.42 1020.03 1019.48 1018.52 1018.13 1018.13 1018.05 1018.25 1018.20 1017.78 1017.74 1017.76 1017.74 1017.66
1031.09 1031.51 1031.67 1031.20 1030.62 1029.72 1029.02 1028.68 1028.41 1028.02 1027.67 1027.32 1027.05 1026.66 1026.36 1026.07 1025.68 1025.39 1024.96 1024.61 1024.22 1023.80 1023.38 1022.99 1022.63 1022.36 1021.97 1021.63 1021.34 1020.88 1020.49 1020.05 1018.78 1018.49 1018.46 1018.26 1019.05 1018.35 1018.09 1017.96 1017.85 1017.88 1017.80
1031.39 1031.51 1031.47 1031.15 1031.02 1030.68 1030.06 1029.54 1029.25 1029.04 1028.64 1028.26 1027.96 1027.75 1027.27 1026.92 1026.47 1026.02 1025.67 1025.22 1024.85 1024.45 1024.02 1023.65 1023.31 1022.95 1022.47 1022.10 1021.55 1021.31 1020.83 1020.53 1019.51 1019.20 1018.76 1019.42 1019.37 1018.57 1018.37 1018.14 1018.07 1018.00 1017.92
1031.76 1031.62 1031.42 1031.05 1030.94 1030.58 1030.48 1030.47 1030.06 1029.82 1029.39 1029.03 1028.75 1028.23 1027.96 1027.39 1027.15 1026.87 1026.32 1025.97 1025.55 1025.18 1024.64 1024.14 1023.72 1023.27 1022.99 1022.63 1022.10 1021.46 1020.94 1020.36 1020.04 1020.04 1019.55 1020.29 1019.58 1018.80 1018.53 1018.38 1018.40 1018.29 1018.17
1031.76 1032.02 1031.92 1031.56 1031.34 1031.07 1030.86 1030.58 1030.29 1030.22 1029.85 1029.51 1029.01 1028.74 1028.04 1027.78 1027.67 1027.39 1027.31 1026.82 1026.22 1025.70 1025.20 1024.66 1024.20 1023.65 1023.06 1022.49 1022.33 1021.92 1021.20 1020.79 1020.49 1020.34 1020.45 1020.76 1020.02 1019.20 1018.75 1018.72 1018.69 1018.57 1018.38
1032.04 1032.25 1032.24 1031.98 1031.83 1031.48 1031.11 1030.73 1030.45 1030.29 1030.09 1029.95 1029.57 1029.19 1028.66 1028.36 1028.37 1027.91 1027.55 1027.28 1026.66 1026.26 1025.74 1025.14 1024.61 1023.98 1023.43 1022.91 1022.49 1022.09 1021.77 1021.47 1021.02 1020.78 1020.58 1021.19 1020.52 1019.82 1019.43 1019.14 1018.95 1018.77 1018.68
1032.39 1032.67 1032.91 1032.49 1032.37 1031.94 1031.63 1031.29 1030.98 1030.62 1030.67 1030.52 1030.40 1029.84 1029.32 1028.84 1028.47 1028.05 1027.89 1027.64 1027.03 1026.63 1026.06 1025.56 1024.89 1024.58 1024.31 1023.89 1023.40 1022.89 1022.38 1021.91 1021.61 1021.29 1021.19 1021.61 1021.03 1020.38 1020.00 1019.62 1019.27 1018.97 1018.85
1032.49 1032.88 1033.07 1032.97 1032.61 1032.46 1032.17 1031.84 1031.59 1031.40 1031.40 1031.23 1030.98 1030.61 1030.07 1029.35 1029.03 1028.80 1028.56 1028.43 1027.83 1027.31 1026.86 1026.44 1025.66 1025.22 1024.77 1024.49 1024.08 1023.56 1023.02 1022.59 1022.31 1021.78 1021.61 1022.00 1021.51 1021.03 1020.46 1020.10 1019.68 1019.38 1019.13
1032.67 1033.18 1033.46 1033.37 1033.08 1032.91 1032.59 1032.32 1032.15 1032.20 1032.13 1032.05 1031.55 1031.60 1031.16 1030.32 1029.76 1029.56 1029.08 1028.86 1028.63 1028.18 1027.78 1027.14 1026.29 1025.66 1025.17 1024.85 1024.41 1023.96 1023.53 1023.11 1022.75 1022.41 1022.14 1022.19 1021.99 1021.66 1021.18 1020.84 1020.36 1019.96 1019.58
1032.90 1033.28 1033.64 1033.64 1033.49 1033.20 1032.86 1032.74 1032.56 1032.59 1032.66 1032.55 1032.50 1032.48 1031.91 1031.34 1030.76 1030.24 1029.87 1029.52 1029.13 1028.93 1028.42 1027.67 1027.17 1026.38 1025.78 1025.34 1024.71 1024.45 1024.29 1023.72 1023.22 1022.83 1022.66 1022.31 1022.62 1022.42 1021.96 1021.62 1021.04 1020.75 1020.50
1033.26 1033.73 1033.80 1034.01 1033.90 1033.61 1033.39 1033.24 1033.07 1033.32 1033.26 1033.02 1033.02 1033.00 1032.63 1032.21 1031.55 1030.81 1030.43 1030.08 1029.97 1029.47 1028.74 1028.05 1027.49 1026.80 1026.10 1025.50 1025.05 1025.05 1024.68 1024.14 1023.86 1023.76 1023.43 1023.33 1023.14 1022.75 1022.65 1022.58 1022.18 1021.65 1021.27
1033.21 1033.60 1034.09 1034.31 1034.27 1034.12 1033.93 1033.78 1033.84 1034.01 1033.74 1033.60 1033.71 1033.64 1033.37 1032.95 1032.31 1031.56 1031.21 1031.18 1030.68 1030.00 1029.44 1028.82 1028.30 1027.23 1026.62 1026.20 1025.89 1025.50 1025.20 1024.97 1024.61 1024.62 1024.49 1024.45 1024.06 1024.07 1023.47 1023.19 1023.00 1022.41 1022.14
1033.08 1033.55 1033.93 1034.16 1034.18 1034.16 1034.18 1034.26 1034.36 1034.25 1034.25 1034.38 1034.38 1034.13 1033.96 1033.39 1033.14 1032.46 1032.33 1032.06 1031.36 1030.80 1030.45 1029.72 1028.94 1028.36 1027.56 1026.94 1026.58 1025.96 1025.71 1025.59 1025.33 1025.26 1025.31 1025.04 1025.27 1024.81 1024.36 1024.15 1023.53 1023.03 1023.02
1033.45 1033.81 1034.10 1034.35 1034.53 1034.48 1034.47 1034.41 1034.25 1034.34 1034.66 1034.79 1034.94 1034.87 1034.46 1034.08 1033.75 1033.38 1033.02 1032.52 1031.87 1031.44 1031.03 1030.33 1029.51 1028.75 1028.53 1027.81 1026.88 1026.16 1026.02 1026.08 1026.05 1026.03 1026.11 1025.86 1026.01 1025.66 1025.23 1024.78 1023.95 1023.70 1023.34
1033.43 1033.78 1034.07 1034.39 1034.77 1034.60 1034.40 1034.25 1034.23 1034.36 1034.72 1035.00 1035.02 1035.08 1034.91 1034.66 1034.55 1034.13 1033.35 1032.99 1032.49 1032.21 1031.75 1030.91 1029.90 1029.41 1028.97 1028.40 1026.92 1026.32 1026.07 1026.43 1026.58 1026.71 1026.69 1026.57 1026.61 1026.05 1025.71 1025.40 1024.97 1024.53 1023.60
1033.25 1033.66 1034.14 1034.54 1034.83 1034.95 1034.81 1034.99 1034.88 1034.85 1035.15 1035.23 1035.24 1035.28 1035.45 1035.38 1035.04 1034.68 1034.11 1033.66 1033.27 1032.50 1032.15 1031.70 1030.93 1029.97 1029.74 1029.41 1028.50 1027.26 1026.80 1026.40 1026.67 1027.21 1027.18 1027.08 1027.09 1026.58 1026.32 1025.97 1025.56 1025.03 1024.44
1033.10 1033.82 1034.36 1034.88 1035.20 1035.39 1035.74 1035.34 1035.33 1035.33 1035.40 1035.25 1035.36 1035.45 1035.87 1035.77 1035.49 1035.14 1034.82 1034.18 1033.64 1033.05 1032.56 1032.20 1031.81 1031.28 1030.31 1030.17 1030.05 1029.52 1028.49 1028.51 1028.40 1027.46 1027.58 1027.55 1027.59 1027.06 1026.86 1026.56 1025.97 1025.42 1024.87
1032.70 1033.71 1034.45 1035.09 1035.61 1035.92 1035.86 1035.48 1035.23 1034.71 1034.85 1035.48 1035.80 1036.05 1036.08 1036.11 1035.86 1035.57 1035.13 1034.58 1034.09 1033.61 1033.30 1032.98 1032.66 1032.26 1031.63 1030.98 1030.72 1031.12 1031.38 1031.18 1030.29 1028.71 1027.97 1027.97 1028.12 1027.61 1027.31 1026.95 1026.28 1025.64 1025.14
1032.72 1033.73 1034.59 1035.16 1035.53 1036.12 1036.37 1036.01 1035.83 1035.59 1035.83 1035.92 1036.13 1036.08 1036.08 1036.11 1036.12 1035.84 1035.39 1034.91 1034.53 1034.21 1033.98 1033.70 1033.45 1033.09 1032.71 1032.27 1032.04 1032.11 1031.62 1031.21 1031.26 1030.97 1029.19 1028.61 1028.42 1028.07 1027.77 1027.08 1026.41 1025.73 1025.35
1033.00 1033.81 1034.55 1035.21 1035.82 1036.46 1036.57 1036.94 1036.72 1036.75 1036.58 1036.41 1036.44 1036.19 1036.23 1036.27 1036.24 1036.35 1035.96 1035.48 1035.10 1034.83 1034.67 1034.35 1034.15 1033.99 1033.66 1033.32 1033.13 1032.93 1032.46 1032.13 1031.84 1031.77 1031.15 1030.02 1029.07 1028.09 1027.79 1027.08 1026.31 1025.88 1025.38
Wind_Speed
9 14 22 25 22 22 23 23 23 23 23 24 23 22 22 22 21 20 19 18 19 19 19 19 19 19 18 17 17 16 15 14 13 13 11 12 10 10 11 10 9 11 11
9 12 21 24 21 21 21 21 21 22 22 23 24 22 22 21 21 21 21 22 19 19 19 19 18 19 18 17 17 17 16 15 14 11 8 6 9 8 8 8 10 9 9
9 10 15 20 18 19 20 20 21 21 22 22 22 23 22 21 21 21 22 21 21 21 20 20 20 19 18 18 17 16 16 15 13 9 7 7 7 7 7 6 6 6 7
8 9 13 15 16 17 18 19 20 20 21 21 21 21 21 21 20 20 21 21 21 21 21 20 20 20 19 19 20 18 16 15 12 10 6 9 6 6 4 4 4 5 4
7 8 12 14 15 17 18 18 19 19 20 19 19 19 19 20 20 20 19 19 19 20 19 20 19 20 20 20 18 16 15 15 11 7 8 9 7 10 5 4 2 2 4
6 8 11 13 15 16 17 18 18 19 19 18 18 18 19 18 19 20 20 20 19 18 19 18 18 18 18 18 18 17 16 14 12 8 8 8 9 14 7 4 4 4 2
6 7 8 13 14 15 16 17 18 18 18 18 17 18 18 19 19 19 20 19 19 18 18 18 18 17 17 17 17 18 18 19 8 8 8 8 13 15 12 6 5 4 3
7 6 6 9 11 14 15 16 17 17 17 17 17 17 18 19 19 19 20 19 19 19 19 18 18 16 17 17 17 17 17 18 8 9 8 8 19 15 11 9 7 4 3
7 6 6 6 7 9 15 15 16 16 16 17 17 16 16 18 19 19 19 20 19 20 19 19 18 17 16 18 19 17 14 14 10 8 9 11 18 15 12 13 10 9 6
7 8 8 8 8 7 7 13 14 15 15 15 16 15 12 14 15 18 18 20 19 19 19 20 19 19 15 16 18 18 14 7 9 8 7 11 21 16 15 14 12 12 12
6 8 8 8 8 7 7 8 9 12 14 14 12 14 10 9 10 12 16 17 20 18 20 20 19 19 17 14 16 16 11 7 8 6 6 19 21 20 15 13 14 14 14
5 7 8 8 8 7 6 8 8 8 9 11 11 11 8 9 9 9 11 16 17 18 16 16 18 17 15 9 8 11 7 9 6 6 6 20 21 21 19 16 14 13 14
4 5 7 7 7 8 7 5 5 5 6 6 12 11 9 7 8 8 7 8 9 14 9 11 11 9 12 9 9 8 9 8 6 5 9 20 20 20 21 20 18 15 15
4 5 6 6 6 7 5 5 6 7 6 7 9 13 8 6 8 8 7 9 9 8 11 10 7 10 11 10 10 10 10 8 7 6 7 18 20 20 19 20 19 19 17
5 3 5 5 6 6 6 5 6 6 6 7 8 11 9 8 8 7 8 8 8 9 9 9 9 9 10 10 10 10 11 10 11 7 5 12 20 22 24 23 23 22 23
4 3 4 5 6 6 6 7 5 6 6 6 7 9 10 8 7 7 7 8 8 8 8 8 9 9 8 9 10 10 10 9 11 11 10 9 19 21 23 25 25 26 24
5 4 4 5 5 6 7 6 6 6 5 6 6 10 11 10 9 8 7 8 8 8 10 9 9 9 8 9 10 9 8 10 10 13 12 11 12 17 22 25 25 23 23
5 5 4 3 4 5 6 5 5 5 5 6 6 6 10 11 11 9 8 8 9 8 9 9 9 9 10 9 8 7 7 10 12 13 12 11 12 12 14 24 25 22 23
6 5 5 4 4 5 5 5 6 7 6 6 6 6 9 11 11 8 7 7 8 7 8 7 8 9 9 9 7 6 5 8 10 10 14 14 16 14 11 19 20 19 24
6 5 5 4 4 4 3 3 4 5 5 5 5 6 9 8 10 7 6 7 7 6 7 7 8 8 10 10 6 4 5 5 10 10 12 10 15 14 14 16 13 14 21
7 7 5 4 4 3 3 3 2 3 3 4 5 8 8 8 8 7 5 6 6 7 8 9 7 9 10 12 5 4 4 3 11 9 10 10 16 14 15 14 11 11 11
9 7 6 5 4 3 2 2 1 2 4 4 4 6 7 7 7 6 7 6 7 5 8 10 10 6 7 11 7 3 5 1 9 7 10 10 16 12 13 15 15 14 13
10 8 6 5 4 4 2 4 4 3 2 2 2 3 5 6 6 7 7 6 6 7 7 9 10 12 8 8 14 7 4 4 9 4 9 9 15 11 12 13 14 13 14
12 10 8 7 5 4 4 5 6 3 4 2 1 2 2 5 6 6 7 7 8 6 8 8 8 8 8 8 5 7 6 4 5 6 6 8 12 12 14 11 12 12 14
12 10 8 7 6 5 3 2 4 4 3 3 2 1 1 3 6 6 7 7 8 6 8 9 8 9 7 6 6 5 4 4 3 3 8 10 11 10 12 9 11 10 13
11 10 9 8 6 4 3 3 3 4 3 2 0 1 1 2 3 7 6 6 6 6 7 7 7 7 6 5 4 4 4 3 5 4 6 13 13 9 12 10 10 10 11
Wind_Direction
354 342 333 342 2 8 14 24 29 32 29 29 35 46 46 42 41 43 41 42 39 37 38 36 38 37 36 39 45 44 34 34 35 32 31 35 53 58 51 31 357 69 56
340 342 331 338 3 10 17 25 32 36 34 29 30 38 44 41 39 40 37 36 40 37 38 38 38 36 34 35 36 40 34 28 24 20 359 108 66 50 52 52 27 61 57
356 346 331 334 6 14 17 24 32 37 37 36 31 34 38 42 37 36 36 37 35 36 37 36 36 36 34 35 36 36 29 24 19 0 310 29 47 26 36 33 54 55 57
359 349 337 355 11 20 22 26 29 36 41 38 37 33 34 37 42 36 34 34 32 31 30 31 31 33 34 33 29 26 22 17 8 326 19 25 23 49 33 30 32 57 55
8 1 336 4 15 25 29 29 28 35 40 36 38 36 38 36 37 39 36 36 34 31 31 29 28 27 27 30 27 21 16 9 337 347 17 28 6 38 2 24 19 103 3
17 13 350 9 16 27 33 31 32 35 40 39 37 38 37 39 37 36 34 34 34 35 34 33 30 28 26 26 19 17 21 2 321 22 19 25 19 357 360 26 17 6 349
37 24 10 12 15 29 37 36 35 36 38 40 40 40 37 39 38 38 37 32 30 31 33 30 29 30 29 26 22 22 20 358 2 25 20 19 16 354 7 359 14 12 324
41 39 19 23 24 22 36 39 39 41 40 41 39 40 40 36 39 37 36 34 31 29 30 29 26 27 28 27 25 23 21 4 21 29 23 33 2 353 6 12 7 345 327
46 30 35 38 30 41 35 38 41 41 43 42 43 41 41 41 35 36 34 34 31 30 28 26 25 23 24 24 22 19 18 12 20 17 31 26 352 4 17 23 12 6 356
39 30 26 28 25 35 38 38 39 39 40 41 38 40 35 40 38 34 31 29 30 29 27 24 21 21 19 21 19 16 1 7 20 20 23 9 1 7 22 23 22 19 16
51 36 28 28 29 18 32 34 37 34 36 34 32 31 36 33 30 32 31 27 28 25 23 22 20 17 12 18 16 12 359 11 3 11 29 2 1 5 20 28 26 23 21
52 41 25 28 26 21 22 21 25 30 31 29 26 24 25 28 25 19 25 21 24 19 21 20 19 17 15 8 4 7 10 359 4 359 32 6 1 3 10 10 17 24 25
67 51 33 30 30 29 31 19 22 35 23 27 24 21 21 23 21 24 19 15 15 15 15 11 16 21 14 9 5 3 2 0 360 353 23 7 4 4 5 5 3 12 20
94 58 43 35 37 37 34 36 34 30 26 25 25 19 16 20 24 24 23 17 19 13 11 11 9 8 11 9 9 4 5 5 356 352 6 11 12 11 9 6 6 7 8
140 104 64 50 50 45 48 44 43 37 34 27 28 23 15 20 24 19 23 22 23 12 11 7 6 5 6 3 10 9 9 10 5 3 354 28 24 22 26 21 17 14 11
147 126 87 64 51 55 57 54 48 42 32 34 34 24 24 22 21 22 23 24 22 16 10 8 3 1 1 359 9 12 15 17 22 20 14 17 23 23 24 23 21 20 13
152 134 92 67 48 51 55 52 49 45 35 38 35 28 26 23 16 22 25 22 15 13 10 12 8 5 6 6 10 17 21 29 29 31 22 25 5 20 19 14 14 15 12
157 140 104 86 77 64 58 52 55 45 42 37 31 27 25 24 18 26 24 21 10 15 11 9 8 3 7 6 4 22 30 38 36 31 31 22 22 9 1 9 5 13 13
162 151 125 95 87 92 78 65 60 53 45 40 35 30 20 25 19 24 22 17 14 22 18 12 17 10 4 1 358 18 30 43 34 31 30 25 18 11 5 359 1 10 1
165 156 138 114 100 126 118 106 87 75 66 48 44 32 25 23 22 12 24 20 19 26 28 19 22 22 11 353 342 23 45 68 33 31 25 24 13 9 8 1 356 356 358
173 168 164 140 98 170 163 156 121 86 75 63 48 37 31 25 18 16 18 20 18 34 29 22 18 21 22 1 356 25 58 100 26 26 22 16 9 7 6 1 360 353 351
180 177 164 143 130 131 180 143 26 84 72 60 50 47 33 24 25 21 18 21 21 31 35 33 29 31 44 23 8 331 18 120 20 15 14 12 5 359 0 359 357 356 355
189 181 172 154 140 128 172 160 146 141 153 160 77 59 42 30 30 29 28 23 26 27 29 32 27 28 32 48 37 18 6 11 329 17 4 8 359 356 352 351 353 353 351
185 173 168 164 157 148 177 186 190 203 171 109 88 52 52 36 39 34 32 30 30 28 29 28 24 32 18 36 56 43 56 36 0 326 343 3 353 352 349 342 348 346 353
177 176 166 165 164 150 124 142 176 164 116 123 149 188 81 62 41 31 31 34 33 29 24 24 23 24 36 32 39 20 24 69 4 323 312 336 337 341 342 325 335 346 350
169 166 168 170 163 148 132 89 84 105 110 154 87 239 3 18 28 27 25 29 37 29 21 14 14 25 23 33 25 30 29 8 351 344 313 322 327 332 322 338 332 343 341